Grissom Arb, IN

1:01 AM EDT on September 25, 2016 (GMT -0400)
Grissom Air Reserve Base

Weather History for KGUS - November, 2012

Change the Weather History Date:

Saturday, November 3, 2012

  Actual Average Record
Temperature  
Mean Temperature 35 °F -  
Max Temperature 41 °F 53 °F 75 °F (2003)
Min Temperature 29 °F 37 °F 19 °F (2006)
Degree Days  
Heating Degree Days 30    
Moisture  
Dew Point 31 °F    
Average Humidity 83    
Maximum Humidity 95    
Minimum Humidity 69    
Precipitation  
Precipitation 0.00 in - - ()
Sea Level Pressure  
Sea Level Pressure 30.17 in    
Wind  
Wind Speed 5 mph (NNE)    
Max Wind Speed 10 mph    
Max Gust Speed -    
Visibility 10 miles    
Events      
Averages and records for this station are not official NWS values.
T = Trace of Precipitation, MM = Missing Value Source: NWS Daily Summary

Daily Weather History Graph

Daily Weather History Graph

Search for Another Location

Airport or City:

Trip Planner

Search our weather history database for the weather conditions in past years. The results will help you decide how hot, cold, wet, or windy it might be!

Date:

Astronomy

Nov. 03, 2012 Rise Set
Actual Time 8:17 AM EDT 6:38 PM EDT
Civil Twilight 7:49 AM EDT 7:06 PM EDT
Nautical Twilight 7:16 AM EDT 7:39 PM EDT
Astronomical Twilight 6:44 AM EDT 8:10 PM EDT
Moon 10:18 PM EDT (11/3) 12:21 PM EDT (11/3)
Length of Visible Light 11h 17m
Length of Day
10h 20m
Waning Gibbous, 80% of the Moon is Illuminated
Nov 3
Waning Gibbous
Nov 6
Last Quarter
Nov 13
New
Nov 20
First Quarter
Nov 28
Full

Hourly Weather History & Observations

Time (EDT) Temp. Windchill Dew Point Humidity Pressure Visibility Wind Dir Wind Speed Gust Speed Precip Events Conditions
12:55 AM 35.6 °F 31.7 °F 31.8 °F 86% 30.14 in 10.0 mi WNW 4.6 mph - N/A   Clear
1:55 AM 34.3 °F 29.2 °F 31.5 °F 89% 30.14 in 10.0 mi NNW 5.8 mph - N/A   Clear
2:55 AM 33.4 °F 28.1 °F 31.1 °F 91% 30.15 in 10.0 mi North 5.8 mph - N/A   Clear
3:55 AM 32.7 °F 28.3 °F 30.6 °F 92% 30.15 in 10.0 mi North 4.6 mph - N/A   Clear
4:55 AM 30.4 °F 25.6 °F 29.1 °F 95% 30.15 in 10.0 mi NNE 4.6 mph - N/A   Scattered Clouds
5:55 AM 31.1 °F 23.1 °F 29.7 °F 94% 30.14 in 10.0 mi NE 9.2 mph - N/A   Scattered Clouds
6:55 AM 29.5 °F 21.8 °F 28.2 °F 95% 30.17 in 10.0 mi NE 8.1 mph - N/A   Clear
7:55 AM 29.7 °F 23.7 °F 28.2 °F 94% 30.18 in 10.0 mi NE 5.8 mph - N/A   Clear
8:20 AM 30.2 °F 26.7 °F 28.4 °F 93% 30.18 in 4.0 mi NE 3.5 mph - N/A   Scattered Clouds
8:32 AM 30.2 °F 26.7 °F 28.4 °F 93% 30.19 in 5.0 mi NE 3.5 mph - N/A   Mostly Cloudy
8:55 AM 31.1 °F - 29.8 °F 95% 30.21 in 10.0 mi Calm Calm - N/A   Mostly Cloudy
9:55 AM 34.3 °F 26.5 °F 31.8 °F 90% 30.20 in 10.0 mi ENE 10.4 mph - N/A   Overcast
10:55 AM 36.5 °F 29.2 °F 31.8 °F 83% 30.19 in 10.0 mi East 10.4 mph - N/A   Mostly Cloudy
11:55 AM 37.2 °F 31.9 °F 31.8 °F 81% 30.20 in 10.0 mi East 6.9 mph - N/A   Mostly Cloudy
12:55 PM 38.1 °F 32.3 °F 32.0 °F 79% 30.19 in 10.0 mi NE 8.1 mph - N/A   Overcast
1:55 PM 39.2 °F 35.9 °F 31.6 °F 74% 30.17 in 10.0 mi NE 4.6 mph - N/A   Mostly Cloudy
2:55 PM 40.8 °F 36.9 °F 31.5 °F 69% 30.17 in 10.0 mi NNE 5.8 mph - N/A   Overcast
3:55 PM 40.6 °F 37.5 °F 31.8 °F 71% 30.16 in 10.0 mi NE 4.6 mph - N/A   Overcast
4:55 PM 40.8 °F 38.8 °F 32.2 °F 71% 30.17 in 10.0 mi North 3.5 mph - N/A   Overcast
5:55 PM 41.0 °F - 31.5 °F 69% 30.17 in 10.0 mi Calm Calm - N/A   Overcast
6:55 PM 40.6 °F 38.6 °F 32.4 °F 72% 30.16 in 10.0 mi East 3.5 mph - N/A   Overcast
7:55 PM 40.3 °F - 32.9 °F 75% 30.17 in 10.0 mi Calm Calm - N/A   Overcast
8:55 PM 39.9 °F 37.8 °F 32.2 °F 74% 30.17 in 10.0 mi NNW 3.5 mph - N/A   Overcast
9:55 PM 38.7 °F 35.2 °F 31.8 °F 76% 30.18 in 10.0 mi North 4.6 mph - N/A   Overcast
10:55 PM 37.8 °F 34.2 °F 31.3 °F 77% 30.19 in 10.0 mi NNW 4.6 mph - N/A   Overcast
11:55 PM 35.6 °F 30.7 °F 30.7 °F 82% 30.19 in 10.0 mi North 5.8 mph - N/A   Mostly Cloudy